TimeCST,TemperatureF,Dew PointF,Humidity,Sea Level PressureIn,VisibilityMPH,Wind Direction,Wind SpeedMPH,Gust SpeedMPH,PrecipitationIn,Events,Conditions,WindDirDegrees,DateUTC
12:15 AM,52.7,52.7,100,29.40,5.0,WNW,8.1,-,N/A,,Overcast,290,2013-01-30 06:15:00
12:35 AM,52.7,52.7,100,29.40,7.0,West,8.1,-,N/A,,Overcast,280,2013-01-30 06:35:00
12:55 AM,52.2,52.2,100,29.40,5.0,WSW,3.5,-,N/A,,Overcast,250,2013-01-30 06:55:00
1:15 AM,51.4,51.4,100,29.40,4.0,South,5.8,-,N/A,,Overcast,170,2013-01-30 07:15:00
1:55 AM,50.5,50.5,100,29.36,1.5,ENE,3.5,-,N/A,,Overcast,60,2013-01-30 07:55:00
2:15 AM,50.4,50.4,100,29.37,2.5,South,4.6,-,N/A,,Overcast,180,2013-01-30 08:15:00
2:35 AM,50.7,50.7,100,29.37,5.0,SSW,5.8,-,N/A,,Overcast,200,2013-01-30 08:35:00
2:55 AM,50.4,50.4,100,29.37,7.0,SSW,5.8,-,N/A,,Overcast,200,2013-01-30 08:55:00
3:15 AM,50.2,50.2,100,29.39,5.0,SW,6.9,-,N/A,,Overcast,230,2013-01-30 09:15:00
3:55 AM,50.0,50.0,100,29.36,5.0,SW,3.5,-,N/A,,Overcast,220,2013-01-30 09:55:00
4:15 AM,49.6,49.6,100,29.34,1.0,Calm,Calm,-,N/A,,Overcast,0,2013-01-30 10:15:00
4:35 AM,49.1,49.1,100,29.34,0.5,South,3.5,-,N/A,,Overcast,190,2013-01-30 10:35:00
4:55 AM,48.9,48.9,100,29.28,2.0,SE,10.4,-,N/A,,Overcast,140,2013-01-30 10:55:00
5:15 AM,49.6,49.6,100,29.34,5.0,SSW,8.1,-,N/A,,Overcast,200,2013-01-30 11:15:00
5:35 AM,49.6,49.6,100,29.34,7.0,West,9.2,-,N/A,,Overcast,270,2013-01-30 11:35:00
5:55 AM,46.0,46.0,100,29.33,1.5,WNW,11.5,20.7,N/A,,Overcast,300,2013-01-30 11:55:00
6:15 AM,41.2,41.4,100,29.31,0.8,Calm,Calm,-,N/A,,Overcast,0,2013-01-30 12:15:00
6:35 AM,40.5,40.5,100,29.31,0.8,NNW,4.6,-,N/A,,Overcast,340,2013-01-30 12:35:00
6:55 AM,40.3,40.3,100,29.30,0.5,NNW,3.5,-,N/A,,Overcast,340,2013-01-30 12:55:00
7:15 AM,40.3,40.3,100,29.32,0.5,Calm,Calm,-,N/A,,Overcast,0,2013-01-30 13:15:00
7:35 AM,40.5,40.5,100,29.33,0.2,Calm,Calm,-,N/A,,Overcast,0,2013-01-30 13:35:00
7:55 AM,40.6,40.6,100,29.33,0.8,West,3.5,-,N/A,,Overcast,270,2013-01-30 13:55:00
8:15 AM,41.0,41.0,100,29.33,1.0,West,3.5,-,N/A,,Overcast,260,2013-01-30 14:15:00
8:35 AM,40.8,40.8,100,29.33,1.5,Calm,Calm,-,N/A,,Overcast,0,2013-01-30 14:35:00
8:55 AM,40.6,40.6,100,29.32,1.2,Calm,Calm,-,N/A,,Overcast,0,2013-01-30 14:55:00
9:15 AM,40.3,40.3,100,29.30,1.8,Calm,Calm,-,N/A,,Overcast,0,2013-01-30 15:15:00
9:35 AM,40.3,40.3,100,29.30,1.8,Calm,Calm,-,N/A,,Overcast,0,2013-01-30 15:35:00
9:55 AM,40.8,40.8,100,29.30,1.2,South,3.5,-,N/A,,Overcast,170,2013-01-30 15:55:00
10:15 AM,41.2,41.2,100,29.28,0.8,Calm,Calm,-,N/A,,Overcast,0,2013-01-30 16:15:00
10:35 AM,41.9,41.9,100,29.27,0.8,SSE,4.6,-,N/A,,Overcast,160,2013-01-30 16:35:00
10:55 AM,43.5,43.3,99,29.25,1.0,South,9.2,-,N/A,,Overcast,180,2013-01-30 16:55:00
11:15 AM,46.2,46.0,99,29.24,2.5,SSW,12.7,-,N/A,,Overcast,200,2013-01-30 17:15:00
11:35 AM,48.7,48.6,99,29.23,10.0,SSW,15.0,19.6,N/A,,Overcast,210,2013-01-30 17:35:00
11:55 AM,49.6,49.6,100,29.22,10.0,SSW,18.4,24.2,N/A,,Overcast,210,2013-01-30 17:55:00
12:15 PM,50.4,50.5,100,29.21,10.0,SSW,16.1,24.2,N/A,,Overcast,210,2013-01-30 18:15:00
12:35 PM,51.3,50.2,96,29.20,10.0,SSW,16.1,24.2,N/A,,Overcast,200,2013-01-30 18:35:00
1:15 PM,49.1,44.4,84,29.20,7.0,SW,23.0,32.2,N/A,,Overcast,230,2013-01-30 19:15:00
1:35 PM,47.3,42.8,84,29.20,10.0,WSW,18.4,27.6,N/A,,Overcast,240,2013-01-30 19:35:00
1:55 PM,45.0,42.4,91,29.21,10.0,WSW,25.3,34.5,N/A,,Overcast,240,2013-01-30 19:55:00
2:15 PM,42.6,40.6,93,29.22,10.0,WSW,19.6,29.9,N/A,,Overcast,250,2013-01-30 20:15:00
2:55 PM,40.3,38.1,92,29.22,10.0,WSW,17.3,27.6,N/A,,Overcast,250,2013-01-30 20:55:00
3:15 PM,39.6,37.2,91,29.24,10.0,WSW,19.6,31.1,N/A,,Overcast,240,2013-01-30 21:15:00
3:35 PM,39.2,36.5,90,29.24,10.0,WSW,16.1,-,N/A,,Overcast,250,2013-01-30 21:35:00
4:15 PM,39.2,35.2,86,29.25,10.0,WSW,24.2,31.1,N/A,,Overcast,240,2013-01-30 22:15:00
4:35 PM,38.1,35.1,89,29.25,7.0,WSW,20.7,28.8,N/A,,Overcast,250,2013-01-30 22:35:00
4:55 PM,37.0,35.2,93,29.26,10.0,West,19.6,25.3,N/A,,Overcast,260,2013-01-30 22:55:00
5:15 PM,35.6,33.8,93,29.29,1.5,NW,16.1,27.6,N/A,,Overcast,310,2013-01-30 23:15:00
5:35 PM,32.4,32.0,99,29.31,5.0,NW,23.0,31.1,N/A,,Overcast,310,2013-01-30 23:35:00
5:55 PM,32.0,30.9,96,29.33,10.0,NW,17.3,31.1,N/A,,Overcast,310,2013-01-30 23:55:00
6:15 PM,31.8,30.0,93,29.35,7.0,NW,15.0,27.6,N/A,,Overcast,310,2013-01-31 00:15:00
6:55 PM,31.5,29.1,91,29.39,10.0,WNW,18.4,21.9,N/A,,Overcast,290,2013-01-31 00:55:00
7:15 PM,31.3,28.6,90,29.40,10.0,NW,16.1,25.3,N/A,,Overcast,310,2013-01-31 01:15:00
7:35 PM,30.7,27.7,88,29.40,10.0,WNW,18.4,24.2,N/A,,Overcast,300,2013-01-31 01:35:00
7:55 PM,30.4,27.7,90,29.41,7.0,WNW,15.0,19.6,N/A,,Overcast,300,2013-01-31 01:55:00
8:15 PM,30.2,27.3,89,29.42,10.0,WNW,15.0,-,N/A,,Overcast,300,2013-01-31 02:15:00
8:35 PM,30.2,26.6,86,29.42,10.0,WNW,13.8,-,N/A,,Overcast,290,2013-01-31 02:35:00
8:55 PM,30.0,27.5,90,29.44,5.0,West,13.8,-,N/A,,Overcast,280,2013-01-31 02:55:00
9:15 PM,29.8,27.0,89,29.45,10.0,West,25.3,31.1,N/A,,Overcast,280,2013-01-31 03:15:00
9:55 PM,29.1,25.3,86,29.48,7.0,West,21.9,27.6,N/A,,Overcast,270,2013-01-31 03:55:00
10:15 PM,28.0,25.0,88,29.50,10.0,West,18.4,31.1,N/A,,Overcast,280,2013-01-31 04:15:00
10:35 PM,27.1,23.5,86,29.52,10.0,West,27.6,32.2,N/A,,Overcast,280,2013-01-31 04:35:00
10:55 PM,26.6,21.9,82,29.53,10.0,West,23.0,32.2,N/A,,Overcast,280,2013-01-31 04:55:00
11:15 PM,26.2,21.2,81,29.55,10.0,West,18.4,32.2,N/A,,Overcast,280,2013-01-31 05:15:00
11:35 PM,25.5,20.8,82,29.57,10.0,West,21.9,35.7,N/A,,Overcast,280,2013-01-31 05:35:00
11:55 PM,25.0,19.9,81,29.58,10.0,West,18.4,28.8,N/A,,Overcast,280,2013-01-31 05:55:00